Voltar ao catálogo

SES 3

AtivoComunicaçõesGEO
NORAD 37748·PAYLOAD·🇺🇸 United States

Lançado Jul 15, 2011 de Baikonur Cosmodrome

Loading…

TLE

AtualizadoSource: CelesTrak SupGP

Época: Sep 14, 2026, 23:44 UTC

1 37748C 11035A   26257.98958333 -.00000012  00000+0  00000+0 0  2578
2 37748   1.5525  81.9403 0002332 100.7312  64.5513  1.00271872    11

Acompanhe SES 3 em tempo real com AllMySat

Download on the App Store